Tracking 25710 objects as of 6-Jul-2022
HD Live streaming from Space Station
objects crossing your sky now

COSMOS 970 DEB

Track COSMOS 970 DEB now!
10-day predictions


NORAD ID: 15559
Int'l Code: 1977-121BM
Perigee: 925.9 km
Apogee: 1,126.8 km
Inclination: 65.6 °
Period: 105.5 minutes
Semi major axis: 7397 km
RCS: 0.0103 m2 (small)
Launch date: December 21, 1977
Source: Commonwealth of Independent States (former USSR) (CIS)
Launch site: TYURATAM MISSILE AND SPACE COMPLEX (TTMTR)

Note: This is SATELLITE DEBRIS
aabbcc
Your satellite tracking list
Your tracking list is empty




NASA's NSSDC Master Catalog

Two Line Element Set (TLE):
1 15559U 77121BM  22187.36932056  .00000036  00000-0  13577-3 0  9992
2 15559  65.5779 159.7314 0135784 291.6818 221.6421 13.64559642863975
Source of the keplerian elements: AFSPC